Weather Roundup
Issued by NWS Chicago, IL

Home | Current Version | Previous Version | Text Only | Print | Product List | Glossary On
Versions: 1 2 3 4 5 6 7 8 9 10 11 12 13 14 15 16 17 18 19 20 21 22 23 24 25 26 27 28 29 30 31 32 33 34 35 36 37 38 39 40 41 42 43 44 45 46 47 48 49 50
000
NZUS59 KLOT 271121
HRRLOT

CHICAGO AREA WEATHER ROUNDUP
NATIONAL WEATHER SERVICE CHICAGO/ROMEOVILLE IL
600 AM CDT FRI MAR 27 2015

NOTE: "FAIR" INDICATES FEW OR NO CLOUDS BELOW 12,000 FEET WITH NO
SIGNIFICANT WEATHER AND/OR OBSTRUCTIONS TO VISIBILITY.

* THESE STATIONS ARE NOT UNDER NWS QUALITY CONTROL. THEY ALSO MAY NOT
  REPORT WEATHER SUCH AS PRECIPITATION OR FOG.

ILZ005-006-012>014-019>023-271200-
NORTHEAST ILLINOIS

CITY           SKY/WX    TMP DP  RH WIND       PRES   REMARKS
OHARE          LGT SNOW  24  19  81 NE12      30.10R WCI  13
MIDWAY         LGT SNOW  28  23  81 N16       30.10R FOG     WCI  16
AURORA         PTCLDY    25  16  68 N18       30.11R WCI  11
LANSING*       LGT SNOW  27  23  82 NE12      30.09R WCI  17
JOLIET*        FLURRIES  30  26  86 N7        30.10R WCI  23
WAUKEGAN       CLOUDY    21   8  57 N8G16     30.12R WCI  11
DUPAGE AIRPORT FLURRIES  27  20  75 N12       30.09R WCI  17
WHEELING       LGT SNOW  24  17  74 N12       30.13R WCI  13
KANKAKEE*      CLOUDY    30  26  84 N8        30.09R WCI  22
MORRIS*        MOCLDY    28  22  78 N6        30.10R WCI  21
LEWIS AIRPORT* FLURRIES  28  24  85 NE14      30.09R WCI  16
NORTHERLY IS     N/A     26  22  84 N17         N/A  WCI  13
$$

WIZ051-052-058>065-066-070>072-271200-
SOUTHEAST WISCONSIN

CITY           SKY/WX    TMP DP  RH WIND       PRES   REMARKS
MILWAUKEE      PTCLDY    19   3  49 N12G22    30.14R WCI   7
KENOSHA*       CLOUDY    21   8  57 N16G22    30.13R WCI   7
RACINE*        MOCLDY    20   5  52 N12       30.15R WCI   8
BURLINGTON     CLOUDY    19   3  49 N12G22    30.14R WCI   7
WAUKESHA       CLEAR     16   3  57 NW6       30.15R WCI   7
WEST BEND      CLEAR     18   5  57 NW9       30.15R WCI   6
$$

INZ001>003-010>013-019-020-271200-
NORTHWEST INDIANA

CITY           SKY/WX    TMP DP  RH WIND       PRES   REMARKS
GARY*          LGT SNOW  28  21  74 N18G30    30.09R WCI  16
MICHIGAN CITY* NOT AVBL
RENSSELAER*    NOT AVBL
VALPARAISO     FLURRIES  25  19  78 N10       30.07R WCI  15
$$

LMZ740>746-271200-
SOUTHERN LAKE MICHIGAN

STATION/POSITION TIME  SKY/WX   TEMP WIND        PRES    VSBY
                                AIR  DIR/SP/G
                 (UTC)          (F)  (DEG/KT/KT) (MB)    (MI)
HARRISON CRIB    1100            25   10/ 25/ 30   N/A
BURNHAM HARBOR   1100            26  350/ 18/ 21   N/A
CALUMET HARBOR   1000            27   10/ 17/ 21 1017.5R
BURNS HARBOR     1000            28   30/ 17/ 20 1018.3S
MICHIGAN CITY    1100            25   10/ 22/ 26   N/A
$$

ABBREVIATIONS USED IN REMARKS
   TC - TEMPERATURE IN CELSIUS
  WCI - WIND CHILL INDEX
   HX - HEAT INDEX
  VSB - VISIBILITY
$$


USA.gov is the U.S. government's official web portal to all federal, state and local government web resources and services.